RH
13 13 13 14 14 14 16 17 19 21 22 23 23 20 21 28 38 46 48 49 53 53 49 38 25 21 24 29 34 36 35 36 38 40 43 45 46 46 46 47 47 46
13 13 13 13 13 13 15 16 17 20 22 23 24 23 20 23 32 38 41 44 46 43 40 34 26 24 29 33 36 36 35 36 39 42 44 45 47 49 50 51 52 51
13 13 13 13 13 13 14 15 16 19 21 22 24 24 20 20 27 32 33 37 37 32 31 28 24 27 33 35 36 35 35 38 41 42 44 46 49 52 55 58 59 60
13 13 13 12 13 13 13 14 16 18 20 21 22 24 22 20 23 27 28 28 27 24 24 24 23 28 34 35 34 35 37 40 43 43 45 47 50 53 57 58 59 62
13 13 13 13 13 13 13 13 15 17 20 21 21 23 24 21 20 23 23 22 21 19 20 22 22 28 34 33 33 36 40 42 44 44 46 46 48 52 56 56 56 58
13 13 13 14 13 13 13 13 14 16 18 21 21 22 24 22 20 19 20 19 18 16 18 19 21 27 32 32 34 38 41 42 43 43 43 43 44 47 51 55 56 57
14 14 13 14 14 14 14 14 14 16 18 20 21 22 22 22 19 18 17 17 16 15 17 19 21 26 31 32 34 38 40 40 40 39 39 39 41 43 47 51 55 57
21 17 15 15 15 14 14 15 15 16 17 19 20 21 21 20 19 17 16 15 15 15 16 19 22 26 31 32 33 36 38 39 39 38 38 38 39 42 45 48 53 56
37 28 23 19 18 18 17 17 16 17 18 19 20 21 20 19 17 16 15 14 14 15 17 20 23 26 30 31 32 35 37 39 39 38 38 38 39 43 46 49 52 55
46 38 30 25 22 21 21 21 21 20 20 20 20 22 22 19 17 15 14 14 13 15 18 21 23 26 29 31 32 34 37 38 39 39 38 39 41 44 49 51 53 55
47 42 36 29 24 22 22 23 24 23 23 23 23 24 24 21 18 15 14 14 13 14 19 23 25 26 28 31 32 34 36 38 38 38 38 39 41 46 50 52 54 56
45 43 40 36 31 26 24 23 23 23 23 23 23 24 24 21 18 15 13 13 13 13 18 24 26 27 28 30 32 34 35 37 37 38 38 38 40 45 50 52 53 54
40 41 41 40 37 34 32 28 25 23 21 21 21 21 20 19 17 14 12 13 14 13 16 22 26 28 28 29 31 33 34 36 37 37 38 37 39 44 49 51 51 50
36 38 39 41 40 40 39 32 27 23 21 20 19 18 17 17 16 14 12 13 15 14 15 20 25 27 28 29 29 31 33 35 36 36 37 37 39 43 47 48 48 47
35 36 38 40 40 40 40 36 28 22 20 19 17 16 16 16 15 13 11 12 15 15 15 18 23 27 28 28 28 29 32 34 35 35 36 37 38 41 45 46 45 46
38 37 37 39 37 36 38 40 33 25 21 19 17 15 13 13 13 10 9 12 15 16 16 17 21 25 28 27 27 28 31 33 35 35 35 37 39 41 44 45 44 45
39 37 36 36 35 34 36 41 39 31 24 21 19 17 13 10 9 7 7 10 14 17 17 17 20 24 27 29 29 30 31 32 34 35 35 36 39 43 45 44 44 44
36 37 35 34 34 34 35 39 41 37 30 24 22 19 15 9 6 6 6 8 13 17 18 19 20 22 26 29 31 32 32 33 34 34 35 37 40 43 45 44 44 42
33 35 35 34 34 35 37 39 40 37 33 29 26 22 19 14 8 5 5 7 11 16 19 21 22 23 26 28 30 32 33 34 34 33 35 38 41 43 44 43 41 40
30 32 32 33 33 33 35 36 35 33 31 31 30 26 22 19 13 7 5 6 10 14 18 22 23 24 27 28 29 31 32 34 34 34 36 39 41 43 42 40 39 36
28 28 30 31 32 31 31 31 31 32 31 30 32 31 27 22 18 12 7 6 8 12 16 20 23 25 27 29 30 30 31 33 33 34 37 39 40 41 40 38 36 32
29 29 29 30 32 32 30 31 31 31 32 33 34 35 32 27 22 17 13 7 6 10 14 17 20 22 24 27 29 29 30 32 34 36 37 37 38 38 38 37 32 29
29 30 29 30 33 34 34 34 35 35 37 37 36 36 37 33 27 22 19 12 7 8 12 15 18 20 22 24 25 27 29 32 35 36 35 36 36 36 36 34 29 30
29 30 31 31 32 33 34 36 38 40 41 40 38 37 39 40 35 27 22 18 13 9 9 13 17 19 20 22 22 23 26 29 32 34 34 34 35 34 34 31 28 31
28 30 30 29 28 28 29 31 34 38 39 39 39 39 41 44 44 35 27 23 20 14 9 9 14 18 19 21 22 23 24 26 28 30 32 33 33 33 32 28 27 29
28 29 28 26 23 22 23 26 31 35 35 35 37 39 41 44 45 41 33 27 24 21 15 11 10 13 17 19 21 22 23 25 26 29 31 32 33 32 29 26 26 26
Wind_Speed
26 25 24 23 22 20 19 19 18 17 15 13 12 13 16 18 18 19 19 18 18 18 17 17 18 18 17 15 14 14 12 11 11 9 6 4 4 4 4 5 6 7
26 25 25 24 23 21 20 20 20 19 17 15 13 13 16 19 21 21 21 21 21 20 20 20 20 20 18 17 16 15 14 14 13 10 7 4 2 3 4 5 5 5
28 26 25 24 23 21 21 21 21 20 19 18 16 14 16 20 22 22 23 23 23 22 22 22 22 21 20 19 18 17 17 16 14 11 8 5 2 1 2 4 4 4
29 28 26 25 24 23 23 23 23 22 21 19 18 17 16 19 22 23 24 24 24 24 24 24 24 23 21 20 20 20 19 17 14 12 9 6 3 1 1 2 2 3
30 29 28 27 26 25 25 25 24 23 22 21 20 19 18 19 21 24 24 25 25 25 25 26 26 25 23 22 22 21 20 17 15 12 9 7 5 4 4 4 4 4
31 31 31 30 29 28 28 27 26 25 24 23 22 22 20 19 21 23 25 26 26 26 27 27 27 26 25 23 23 22 20 18 16 13 11 9 8 7 7 8 8 8
33 33 32 32 31 31 30 29 28 28 27 25 24 23 23 21 21 23 25 27 27 28 28 28 28 28 27 25 24 23 21 19 17 15 13 12 12 11 11 11 11 11
33 34 34 34 33 33 33 32 31 31 29 28 26 25 25 24 23 23 26 28 30 30 30 30 29 29 28 27 26 24 22 20 19 17 15 15 15 14 14 14 14 14
28 31 34 35 35 34 34 34 33 33 32 31 29 28 27 26 25 25 26 29 31 32 32 31 31 31 30 29 27 25 23 22 20 19 18 18 18 17 17 17 16 16
24 26 29 32 34 34 34 34 34 34 33 33 32 30 29 29 27 27 28 30 33 34 34 33 33 32 32 31 29 27 25 23 21 21 20 20 20 20 20 19 18 17
24 24 25 27 29 31 32 33 33 34 34 35 34 32 31 31 31 30 29 31 34 36 36 35 34 34 33 32 30 29 26 24 23 22 22 22 22 21 21 21 19 19
26 26 26 25 26 27 28 29 31 32 33 33 33 31 32 33 33 32 32 32 34 37 37 37 36 35 35 34 32 30 28 26 25 24 23 23 24 24 23 22 21 21
28 28 27 26 26 26 26 26 27 28 29 29 30 31 32 34 34 34 33 33 34 37 38 38 38 37 36 35 34 33 31 29 27 26 25 24 25 25 25 24 24 24
29 29 28 28 28 28 27 27 26 26 27 27 28 30 32 33 35 35 35 34 35 37 39 40 40 39 38 37 36 34 33 31 29 27 26 25 26 27 27 26 26 26
31 30 29 29 30 30 30 29 27 26 26 26 27 28 30 33 35 36 37 36 36 37 40 41 41 41 40 38 37 35 34 33 31 29 27 26 27 29 29 28 27 27
32 32 31 31 32 32 32 32 29 28 27 27 27 27 29 32 35 37 39 38 37 38 40 42 43 42 41 40 38 36 35 35 33 31 29 28 29 30 30 29 29 28
33 33 33 33 34 33 33 34 32 30 28 28 28 27 28 31 35 38 40 40 39 38 39 42 43 42 41 41 40 38 36 36 35 34 32 30 30 31 31 31 31 30
35 34 34 35 35 35 35 35 34 32 30 30 30 29 28 30 34 39 40 40 40 39 40 41 42 41 42 42 41 40 38 38 37 36 34 32 32 32 32 33 34 33
35 34 34 35 35 35 35 34 34 34 32 32 31 31 29 30 34 38 40 41 41 41 41 41 42 41 42 43 42 41 40 40 40 38 36 34 34 34 35 36 37 36
34 33 34 34 34 34 34 34 34 34 34 34 33 32 32 32 34 37 39 40 42 43 42 42 42 42 42 43 43 42 42 42 41 39 38 37 36 36 38 39 39 38
33 32 32 32 33 34 34 34 34 34 35 35 35 34 34 35 35 36 38 40 42 43 43 44 44 44 43 43 44 43 43 43 43 41 40 39 39 39 41 42 41 40
32 33 33 33 33 33 34 34 35 35 35 36 36 36 36 37 37 37 38 40 43 44 45 46 46 45 44 44 45 44 44 45 44 44 43 42 41 41 42 43 43 40
33 33 33 33 32 33 34 35 35 35 36 36 37 38 38 38 39 39 39 41 43 45 46 47 47 46 46 46 46 46 45 46 46 46 46 45 43 43 44 44 44 41
33 33 32 33 33 33 34 35 35 36 36 36 37 38 40 39 39 41 42 42 43 45 47 47 48 48 47 47 47 47 47 47 48 48 48 47 45 45 45 45 44 41
32 32 33 34 34 32 33 34 34 35 35 36 37 39 40 41 41 42 43 44 44 45 47 49 49 49 48 48 48 48 48 48 49 50 50 49 47 47 47 46 45 43
33 32 32 32 30 29 30 31 32 33 34 35 37 38 39 41 42 42 43 45 46 46 47 49 50 51 50 50 50 49 49 50 51 52 51 50 49 49 49 48 46 43
Wind_Direction
227 226 226 226 226 227 228 229 230 233 237 238 239 236 230 225 220 218 215 213 214 214 212 206 201 198 196 193 195 200 203 199 189 181 172 145 106 76 67 68 61 55
229 228 227 226 225 226 228 230 232 234 237 239 239 236 232 227 222 218 215 213 212 212 211 207 202 199 195 193 197 203 202 195 189 186 187 174 121 64 47 43 39 35
231 231 230 229 228 227 229 232 234 235 238 240 240 238 235 230 225 221 217 214 211 210 209 207 204 201 196 194 200 203 199 193 193 195 194 185 157 56 27 27 26 21
232 233 233 233 232 230 231 233 235 236 238 242 243 241 238 233 228 224 219 215 211 209 209 208 206 203 198 197 200 199 196 195 198 201 197 192 195 250 306 336 359 7
234 235 236 236 235 234 234 235 237 238 238 241 243 243 241 237 232 227 222 217 212 210 211 209 208 205 202 201 199 197 198 200 203 204 204 210 229 252 269 280 293 318
234 236 237 238 238 237 237 238 239 240 239 239 241 243 243 240 235 229 224 219 214 212 212 211 210 207 206 205 201 200 202 205 209 214 218 229 244 254 263 273 280 292
236 237 237 238 238 238 238 239 240 241 241 239 239 242 243 242 238 232 226 221 216 214 214 214 211 209 209 209 206 206 208 211 216 224 231 241 250 256 261 266 273 281
237 238 238 238 239 239 239 239 240 241 242 241 239 240 243 243 240 234 228 223 219 215 215 215 213 211 212 213 212 211 213 214 220 228 237 246 253 258 259 261 266 274
235 236 236 238 238 239 239 239 240 241 242 243 242 240 242 243 241 236 230 225 220 217 217 216 215 214 215 216 215 214 215 216 220 228 237 245 251 255 257 257 261 268
234 233 233 234 236 238 239 240 241 242 243 244 244 242 241 242 241 237 231 226 222 219 218 218 217 217 217 218 218 217 218 218 221 227 235 242 247 251 253 255 258 264
232 232 231 232 234 236 238 240 241 243 243 244 244 242 241 241 241 237 232 228 224 221 220 220 220 219 219 220 220 220 220 221 224 229 235 240 245 248 251 254 257 262
230 232 233 233 235 237 238 239 241 243 244 243 243 241 239 239 240 238 233 229 226 222 221 222 222 222 222 222 223 223 223 224 227 230 235 240 244 247 250 254 258 262
230 232 235 237 239 240 240 241 242 244 245 244 241 238 236 236 237 237 234 230 227 224 223 223 224 224 224 224 225 226 227 227 229 232 236 241 245 247 249 253 258 263
231 233 235 238 241 242 242 242 243 244 245 243 241 237 235 235 235 236 235 231 227 225 224 224 225 226 226 226 227 228 230 231 232 234 237 241 245 248 250 254 258 263
230 233 235 237 241 242 242 242 242 243 244 243 241 239 236 234 234 234 234 232 228 226 225 226 226 227 228 228 229 229 232 235 237 238 239 242 246 250 252 254 258 263
228 231 233 235 239 242 243 242 241 241 243 243 242 241 238 234 232 233 233 232 230 227 226 227 228 230 231 231 231 231 232 236 239 240 241 243 248 251 252 254 258 262
227 229 231 234 238 241 242 243 242 240 240 242 242 243 240 235 232 233 233 233 231 229 228 229 231 232 232 232 232 233 234 236 238 240 241 243 248 251 253 255 258 260
228 228 231 233 236 239 240 242 243 242 242 241 240 241 241 239 235 234 234 233 233 231 231 232 233 233 233 234 234 234 235 236 237 239 240 242 246 250 252 255 257 260
230 229 231 233 235 238 239 241 244 247 248 246 243 240 241 241 239 237 235 235 234 233 233 234 235 234 234 235 235 234 235 236 236 238 239 241 244 247 250 253 257 260
233 232 232 232 234 237 239 241 244 248 252 252 248 242 239 240 241 239 238 237 236 235 235 236 237 236 236 236 236 234 235 235 236 237 237 238 241 244 248 252 255 259
236 236 235 234 234 236 239 241 242 246 250 253 252 246 240 239 241 241 240 239 239 237 236 237 238 238 237 238 237 235 235 235 236 236 237 237 239 243 247 251 255 259
237 238 238 237 236 236 238 239 241 243 247 249 252 251 245 239 238 241 241 240 239 238 237 237 239 239 239 238 237 235 234 235 236 237 237 238 239 243 246 251 256 258
235 236 238 239 238 237 238 240 241 243 244 246 250 253 251 245 239 239 241 241 239 239 239 238 239 240 240 238 237 235 233 235 237 238 238 239 240 243 246 251 255 256
233 234 234 236 237 239 241 242 243 243 244 246 249 252 253 251 244 239 240 242 241 240 240 239 239 240 240 238 236 235 233 235 237 238 240 241 242 244 246 250 253 253
232 230 230 235 240 243 245 245 243 242 242 243 245 248 250 251 248 244 240 241 243 242 241 239 239 240 241 239 237 235 234 235 236 238 240 241 243 245 247 249 250 251
230 229 232 240 245 245 243 242 241 241 240 241 242 245 247 248 250 250 246 242 242 243 242 241 239 240 242 241 238 236 235 235 236 238 239 241 243 246 247 249 250 251